{"data":{"norad_id":48640,"epoch":"2026-05-25T02:20:05.902656Z","epoch_age_seconds":76700,"freshness":"FRESH","line1":"1 48640U 21044C   26145.09729054  .00000083  00000+0  14459-4 0  9994","line2":"2 48640  53.1573 118.4388 0001620 102.0859 258.0324 15.31702633275521","mean_motion":15.31702633,"eccentricity":0.000162,"inclination_deg":53.1573,"raan_deg":118.4388,"arg_perigee_deg":102.0859,"mean_anomaly_deg":258.0324,"bstar":1.4459e-5,"rev_number":27552,"period_min":94.013026352224,"perigee_km":469.62262959918,"apogee_km":471.84166320262,"semimajor_km":6848.8691464009,"source":"CELESTRAK","updated_at":"2026-05-25T13:38:16.753148Z"}}